Regional Weather Roundup
Issued by NWS Green Bay, WI

Home | Current Version | Previous Version | Text Only | Print | Product List | Glossary On
Versions: 1 2 3 4 5 6 7 8 9 10 11 12 13 14 15 16 17 18 19 20 21 22 23 24 25 26 27 28 29 30 31 32 33 34 35 36 37 38 39 40 41 42 43 44 45 46 47 48 49 50
000
ASUS43 KGRB 310711
RWRGRB

NORTH-CENTRAL AND NORTHEAST WISCONSIN REGIONAL WEATHER ROUNDUP
NATIONAL WEATHER SERVICE GREEN BAY WI
200 AM CDT SUN JUL 31 2016

WIZ005-009-010>012-018-019-310800-
NORTH CENTRAL WISCONSIN

CITY           SKY/WX    TMP DP  RH WIND       PRES   REMARKS
IRONWOOD       CLEAR     63  55  77 S8        30.05S
MANITOWISH WTR CLEAR     54  54 100 CALM      30.10R
ARBOR VITAE    CLEAR     57  55  92 CALM      30.10S
EAGLE RIVER    PTCLDY    53  53 100 CALM      30.10R FOG
LAND O LAKES   CLEAR     51  50  99 CALM      30.11S FOG
RHINELANDER    CLEAR     53  51  93 CALM      30.10S
PHILLIPS       MOCLDY    58  56  91 CALM      30.08S
ANTIGO         CLEAR     51  50  97 CALM      30.09S
TOMAHAWK       CLEAR     50  49  95 CALM      30.10R
MERRILL        CLEAR     52  52 100 CALM      30.09S
$$

WIZ013-073-310800-
NORTHEAST WISCONSIN

CITY           SKY/WX    TMP DP  RH WIND       PRES   REMARKS
IRON MOUNTAIN  CLEAR     52  48  86 NW3       30.07F
MARINETTE      CLEAR    N/A N/A N/A N5        30.05S
OCONTO         CLEAR     58  58 100 CALM      30.04S
$$

WIZ017-030-035>037-045-310800-
CENTRAL WISCONSIN

CITY           SKY/WX    TMP DP  RH WIND       PRES   REMARKS
MEDFORD        CLEAR     56  54  94 CALM      30.08S
WAUSAU         CLEAR     57  54  89 CALM      30.06S
MOSINEE        CLEAR     57  52  82 NE3       30.08F
MARSHFIELD     CLEAR     61  54  77 CALM      30.06S
WISC RAPIDS    CLEAR     56  52  86 CALM      30.07S
STEVENS POINT  CLEAR     54  53  97 CALM      30.07S
WAUPACA        CLEAR     58  57  97 N3        30.05F
SHAWANO        CLEAR     57  54  90 W3        30.06S
CLINTONVILLE   CLEAR     55  54  94 CALM      30.05F
WAUTOMA        CLEAR     57  55  93 CALM      30.06S
$$

WIZ038-039-048-051-310800-
FOX VALLEY

CITY           SKY/WX    TMP DP  RH WIND       PRES   REMARKS
NWS GREEN BAY  PTCLDY    57  57 100 NW3       30.03F
APPLETON       CLEAR     59  54  82 N6        30.03S
OSHKOSH        CLEAR     59  55  87 CALM      30.03F
FOND DU LAC    PTCLDY    58  56  93 CALM      30.04S
$$

WIZ022-050-052-310800-
EAST CENTRAL WISCONSIN

CITY           SKY/WX    TMP DP  RH WIND       PRES   REMARKS
EPHRAIM        FAIR      64  61  88 NE5       30.03S
WASHINGTON ISL NOT AVBL
STURGEON BAY   CLEAR     61  58  90 CALM      30.04S
MANITOWOC      PTCLDY    60  57  89 CALM      30.03S
SHEBOYGAN      CLEAR     58  56  93 CALM      30.03S
$$

LMZ563-521-522-541>543-310800-
LAKESHORE

STATION/POSITION TIME  TEMP    WIND        PRES    VSBY  WAVE
                       AIR SEA DIR/SP/G                  HT/PER
                 (UTC) (F)     (DEG/KT/KT) (MB)    (MI)  (FT/S)
SHEBOYGAN LKSHOR 0700   65     340/  8/  8 1016.8F
KEWAUNEE LKSHORE 0600   62     300/  3/  4 1016.4F
ALGOMA MARINA    0613          320/  7/  8   N/A
NORTHPORT PIER   0600   69      40/  5/  7 1017.3S
N MID LAKE BUOY  0650   70 70  100/ 10/ 12 1016.5F         2/ 4
SISTER BAY LKSHO 0621   64        CALM       N/A
CHAMBERS ISLAND  0600   71      40/  8/ 10 1016.9F
MENOMINEE LKSHOR 0600   70     350/  6/ 10 1016.3F
$$



USA.gov is the U.S. government's official web portal to all federal, state and local government web resources and services.